KD3ADD Weather Reports


time (UTC)temp
C
wind
direction
speed
KPH
gust
KPH
rain 1hr
cm
rain 24hr
cm
rain mn
cm
humidity
%
barometer
mb
20260510033533 11 0 0.0 3.2 0.00 0.08 0.05 86 1010.6
20260510033058 11 0 0.0 3.2 0.00 0.08 0.05 86 1010.6
20260510032536 12 63 0.0 3.2 0.00 0.08 0.05 86 1010.7
20260510032033 12 0 0.0 3.2 0.00 0.08 0.05 85 1010.7
20260510031550 12 0 0.0 1.6 0.00 0.08 0.05 85 1010.6
20260510031033 12 0 0.0 0.0 0.00 0.08 0.05 85 1010.6
20260510030535 12 0 0.0 0.0 0.00 0.08 0.05 85 1010.5
20260510030053 12 0 0.0 0.0 0.00 0.08 0.05 84 1010.5
20260510025536 12 0 0.0 3.2 0.00 0.08 0.05 85 1010.4
20260510025037 12 0 0.0 3.2 0.00 0.08 0.05 84 1010.5
20260510024551 12 0 0.0 3.2 0.00 0.08 0.05 84 1010.4
20260510024037 12 0 0.0 3.2 0.00 0.08 0.05 84 1010.5
20260510023536 12 0 0.0 0.0 0.00 0.08 0.05 84 1010.4
20260510023046 12 0 0.0 0.0 0.00 0.08 0.05 84 1010.4
20260510022537 12 0 0.0 3.2 0.00 0.08 0.05 84 1010.3
20260510022038 12 0 0.0 3.2 0.00 0.08 0.05 83 1010.4
20260510021551 12 0 0.0 3.2 0.00 0.08 0.05 83 1010.5
20260510021036 12 0 0.0 3.2 0.00 0.08 0.05 83 1010.4
20260510020534 12 0 0.0 0.0 0.00 0.08 0.05 83 1010.3
20260510020047 12 0 0.0 0.0 0.00 0.08 0.05 82 1010.1
20260510015537 13 0 0.0 3.2 0.00 0.08 0.05 82 1010.1
20260510015033 13 0 0.0 3.2 0.00 0.08 0.05 82 1010.0
20260510014547 13 0 0.0 3.2 0.00 0.08 0.05 82 1010.0
20260510014037 13 0 0.0 0.0 0.00 0.08 0.05 81 1009.9
20260510013534 13 0 0.0 0.0 0.00 0.08 0.05 81 1009.8
20260510013053 13 0 0.0 0.0 0.00 0.08 0.05 81 1009.9
20260510012533 13 0 0.0 0.0 0.00 0.08 0.05 81 1009.8
20260510012033 13 0 0.0 0.0 0.00 0.08 0.05 81 1009.7
20260510011554 13 0 0.0 3.2 0.00 0.08 0.05 80 1009.7
20260510011033 13 0 0.0 3.2 0.00 0.08 0.05 80 1009.7
20260510010538 13 187 0.0 3.2 0.00 0.08 0.05 80 1009.6
20260510010046 13 0 0.0 3.2 0.00 0.08 0.05 79 1009.6
20260510005537 13 0 0.0 0.0 0.00 0.08 0.05 79 1009.5
20260510005034 14 0 0.0 0.0 0.00 0.08 0.05 78 1009.4
20260510004553 14 0 0.0 3.2 0.00 0.08 0.05 78 1009.5
20260510004036 14 0 0.0 3.2 0.00 0.08 0.05 78 1009.4
20260510003534 14 0 0.0 0.0 0.00 0.08 0.05 78 1009.5
20260510003048 14 0 0.0 0.0 0.00 0.08 0.05 77 1009.5
20260510002533 15 0 0.0 0.0 0.00 0.08 0.05 77 1009.5
20260510002037 15 0 0.0 0.0 0.00 0.08 0.05 77 1009.4
20260510001545 15 0 0.0 3.2 0.00 0.08 0.05 77 1009.3
20260510001036 15 0 0.0 3.2 0.00 0.08 0.05 76 1009.2
20260510000536 15 0 0.0 3.2 0.00 0.08 0.05 76 1009.0
20260510000050 15 187 0.0 3.2 0.00 0.08 0.05 76 1009.0
20260509235534 15 0 0.0 0.0 0.00 0.08 0.05 76 1009.0
20260509235034 15 0 0.0 3.2 0.00 0.08 0.05 76 1009.0
20260509234551 15 0 0.0 3.2 0.00 0.08 0.05 75 1009.0
20260509234034 15 0 0.0 3.2 0.00 0.08 0.05 75 1009.0
20260509233537 15 0 0.0 3.2 0.00 0.08 0.05 75 1009.1
20260509233048 15 183 0.0 4.8 0.00 0.08 0.05 74 1008.9
20260509232537 15 184 1.6 4.8 0.00 0.08 0.05 74 1008.9
20260509232037 15 190 1.6 4.8 0.00 0.08 0.05 73 1008.9
20260509231548 16 181 1.6 4.8 0.00 0.08 0.05 73 1008.8
20260509231033 16 179 1.6 8.0 0.00 0.08 0.05 73 1008.9
20260509230537 16 190 1.6 8.0 0.00 0.08 0.05 72 1008.9
20260509230051 16 205 1.6 3.2 0.00 0.08 0.05 72 1008.9
20260509225534 16 215 1.6 4.8 0.00 0.08 0.05 72 1009.0
20260509225033 16 215 1.6 4.8 0.00 0.08 0.05 72 1008.9
20260509224546 16 229 1.6 4.8 0.00 0.08 0.05 72 1009.0
20260509224034 16 182 1.6 4.8 0.00 0.08 0.05 72 1009.0
20260509223534 16 190 1.6 4.8 0.00 0.08 0.05 72 1008.9
20260509223047 16 195 1.6 6.4 0.00 0.08 0.05 72 1008.9
20260509222536 16 175 3.2 6.4 0.00 0.08 0.05 71 1009.0
20260509222036 16 186 1.6 4.8 0.00 0.08 0.05 72 1009.0
20260509221545 16 190 1.6 4.8 0.00 0.08 0.05 71 1009.0
20260509221034 16 204 3.2 8.0 0.00 0.08 0.05 71 1008.9
20260509220537 16 192 3.2 9.7 0.00 0.08 0.05 71 1009.0
20260509220053 16 178 3.2 8.0 0.00 0.08 0.05 73 1009.0
20260509215535 16 192 1.6 9.7 0.00 0.08 0.05 72 1009.0
20260509215034 16 196 3.2 9.7 0.00 0.08 0.05 71 1009.1
20260509214605 16 190 1.6 4.8 0.00 0.08 0.05 72 1009.2
20260509214037 16 251 1.6 6.4 0.00 0.08 0.05 74 1009.2
20260509213537 15 201 3.2 8.0 0.00 0.08 0.05 73 1009.2
20260509213048 15 186 3.2 8.0 0.00 0.08 0.05 74 1009.3
20260509212536 15 189 3.2 8.0 0.03 0.08 0.05 74 1009.3
20260509212037 16 213 1.6 4.8 0.03 0.08 0.05 75 1009.4
20260509211553 15 197 1.6 4.8 0.03 0.08 0.05 77 1009.5
20260509211035 15 186 1.6 4.8 0.03 0.08 0.05 78 1009.5
20260509210538 15 51 1.6 3.2 0.03 0.08 0.05 78 1009.6
20260509210046 15 74 0.0 3.2 0.03 0.08 0.05 79 1009.6
20260509205537 15 59 1.6 3.2 0.03 0.08 0.05 79 1009.7
20260509205037 15 96 0.0 6.4 0.03 0.08 0.05 78 1009.8
20260509204547 15 79 0.0 6.4 0.03 0.08 0.05 79 1009.8
20260509204034 15 103 3.2 6.4 0.03 0.08 0.05 78 1010.0
20260509203536 15 17 1.6 3.2 0.03 0.08 0.05 78 1010.0
20260509203057 15 0 0.0 3.2 0.00 0.05 0.03 78 1009.9
20260509202534 15 0 0.0 3.2 0.00 0.05 0.03 78 1010.0
20260509202034 15 71 0.0 4.8 0.00 0.05 0.03 78 1009.6
20260509201547 15 84 0.0 4.8 0.00 0.05 0.03 79 1009.3
20260509201034 15 167 0.0 3.2 0.00 0.05 0.03 78 1009.4
20260509200536 15 137 0.0 3.2 0.00 0.05 0.03 78 1009.6
20260509200047 15 85 0.0 3.2 0.00 0.05 0.03 76 1009.7
20260509195536 15 88 0.0 3.2 0.00 0.05 0.03 75 1010.0
20260509195034 15 153 0.0 3.2 0.00 0.05 0.03 76 1010.0
20260509194552 15 0 0.0 3.2 0.00 0.05 0.03 76 1010.1
20260509194037 15 159 0.0 3.2 0.00 0.05 0.03 75 1010.1
20260509193538 15 0 0.0 4.8 0.00 0.05 0.03 75 1010.2
20260509193051 15 68 1.6 4.8 0.00 0.05 0.03 76 1010.1
20260509192537 15 329 1.6 3.2 0.00 0.05 0.03 75 1010.2
20260509192037 15 327 0.0 6.4 0.00 0.05 0.03 78 1010.2
20260509191556 15 244 1.6 6.4 0.00 0.05 0.03 78 1010.2
20260509191034 15 130 1.6 6.4 0.00 0.05 0.03 78 1010.3
20260509190538 14 205 1.6 6.4 0.00 0.05 0.03 79 1010.4
20260509190057 14 134 0.0 6.4 0.00 0.05 0.03 81 1010.5
20260509185534 14 189 3.2 6.4 0.00 0.05 0.03 81 1010.7
20260509185036 13 215 1.6 8.0 0.00 0.05 0.03 82 1010.7
20260509184556 13 201 3.2 8.0 0.00 0.05 0.03 82 1010.8
20260509184034 13 227 1.6 9.7 0.00 0.05 0.03 84 1010.8
20260509183537 13 239 3.2 9.7 0.00 0.05 0.03 83 1010.7
20260509183058 13 182 1.6 9.7 0.00 0.05 0.03 84 1010.6
20260509182533 13 200 4.8 11.3 0.00 0.05 0.03 82 1010.6
20260509182034 13 194 4.8 11.3 0.00 0.05 0.03 84 1010.7
20260509181554 13 115 1.6 6.4 0.00 0.05 0.03 87 1010.7
20260509181036 13 180 1.6 6.4 0.00 0.05 0.03 86 1010.6
20260509180537 12 113 1.6 4.8 0.00 0.05 0.03 88 1010.6
20260509180055 12 188 1.6 4.8 0.00 0.05 0.03 87 1010.7
20260509175537 12 208 0.0 3.2 0.00 0.08 0.03 87 1010.9
20260509175037 12 213 0.0 3.2 0.00 0.08 0.03 87 1010.8
20260509174600 12 0 0.0 3.2 0.00 0.08 0.03 87 1010.9
20260509174034 12 271 0.0 3.2 0.00 0.08 0.03 88 1011.0
20260509173536 12 0 0.0 3.2 0.00 0.08 0.03 89 1011.1
20260509173051 12 209 0.0 3.2 0.00 0.08 0.03 88 1011.1
20260509172534 12 209 0.0 3.2 0.00 0.08 0.03 88 1011.2
20260509172034 12 181 1.6 3.2 0.00 0.08 0.03 88 1011.2
20260509171545 12 239 1.6 3.2 0.00 0.08 0.03 88 1011.3
20260509171037 12 213 1.6 3.2 0.00 0.08 0.03 89 1011.4
20260509170537 12 233 1.6 4.8 0.00 0.08 0.03 89 1011.4
20260509170054 11 206 1.6 6.4 0.00 0.08 0.03 89 1011.5
20260509165537 11 245 3.2 6.4 0.00 0.08 0.03 90 1011.4
20260509165040 11 219 1.6 3.2 0.00 0.08 0.03 90 1011.3
20260509164550 11 187 1.6 3.2 0.00 0.08 0.03 90 1011.2
20260509164037 11 195 0.0 3.2 0.00 0.08 0.03 89 1011.2
20260509163537 11 168 1.6 4.8 0.00 0.08 0.03 89 1011.0
20260509163053 11 167 0.0 4.8 0.00 0.08 0.03 89 1010.9
20260509162535 11 0 0.0 4.8 0.00 0.08 0.03 89 1011.0
20260509162037 11 205 1.6 4.8 0.00 0.08 0.03 89 1011.0
20260509161547 11 160 0.0 3.2 0.00 0.08 0.03 88 1010.8
20260509161037 11 86 0.0 3.2 0.00 0.08 0.03 88 1010.7
20260509160534 11 76 0.0 3.2 0.00 0.08 0.03 88 1010.8
20260509160048 11 76 1.6 3.2 0.00 0.08 0.03 88 1011.0
20260509155534 11 56 1.6 3.2 0.00 0.08 0.03 87 1011.1
20260509155034 11 81 1.6 3.2 0.00 0.08 0.03 86 1011.3
20260509154545 11 320 0.0 1.6 0.00 0.08 0.03 85 1011.6
20260509154034 11 0 0.0 3.2 0.00 0.08 0.03 84 1011.8
20260509153535 11 0 0.0 3.2 0.00 0.08 0.03 84 1011.9
20260509153100 12 0 0.0 3.2 0.00 0.08 0.03 84 1012.0
20260509152536 12 0 0.0 3.2 0.00 0.08 0.03 84 1012.2
20260509152034 12 0 0.0 3.2 0.00 0.08 0.03 83 1012.1
20260509151544 12 277 0.0 3.2 0.00 0.08 0.03 83 1012.0
20260509151037 12 0 0.0 4.8 0.00 0.08 0.03 83 1011.9
20260509150535 12 277 0.0 4.8 0.00 0.08 0.03 83 1011.9
20260509150049 12 312 1.6 3.2 0.00 0.08 0.03 83 1011.9
20260509145535 12 207 1.6 3.2 0.00 0.08 0.03 83 1011.9
20260509145033 12 194 1.6 3.2 0.00 0.08 0.03 82 1011.9
20260509144548 12 196 0.0 3.2 0.00 0.08 0.03 80 1011.8
20260509144035 12 271 0.0 3.2 0.00 0.08 0.03 79 1011.8
20260509143534 12 275 0.0 1.6 0.00 0.08 0.03 80 1011.7
20260509143046 12 0 0.0 3.2 0.00 0.08 0.03 78 1011.6
20260509142538 12 276 0.0 3.2 0.00 0.08 0.03 78 1011.7
20260509142033 12 246 0.0 3.2 0.00 0.08 0.03 78 1011.5
20260509141546 12 0 0.0 3.2 0.00 0.08 0.03 79 1011.5
20260509141038 12 0 1.6 3.2 0.00 0.08 0.03 80 1011.5
20260509140537 12 195 1.6 3.2 0.00 0.08 0.03 80 1011.5
20260509140045 12 0 0.0 3.2 0.00 0.08 0.03 80 1011.4
20260509135541 12 190 0.0 3.2 0.00 0.08 0.03 81 1011.3
20260509135038 12 194 0.0 1.6 0.00 0.08 0.03 81 1011.4
20260509134544 11 261 0.0 3.2 0.00 0.08 0.03 81 1011.3
20260509134034 11 0 0.0 3.2 0.00 0.08 0.03 82 1011.2
20260509133537 11 0 0.0 3.2 0.03 0.08 0.03 82 1011.3
20260509133047 11 0 0.0 3.2 0.03 0.08 0.03 81 1011.4
20260509132534 11 159 0.0 3.2 0.03 0.08 0.03 81 1011.3
20260509132033 11 0 0.0 3.2 0.03 0.08 0.03 81 1011.2
20260509131545 11 0 0.0 3.2 0.03 0.08 0.03 81 1011.2
20260509131033 11 196 1.6 3.2 0.03 0.08 0.03 82 1011.2
20260509130534 11 150 0.0 3.2 0.03 0.08 0.03 81 1011.0
20260509130100 11 78 0.0 4.8 0.03 0.08 0.03 82 1010.7
20260509125538 11 0 1.6 4.8 0.03 0.08 0.03 81 1011.0
20260509125033 11 62 3.2 4.8 0.03 0.08 0.03 81 1010.9
20260509124557 11 0 0.0 3.2 0.03 0.08 0.03 80 1011.0
20260509124034 11 67 1.6 3.2 0.03 0.08 0.03 79 1011.0
20260509123534 11 0 0.0 3.2 0.00 0.05 0.00 79 1011.0
20260509123046 11 70 1.6 3.2 0.00 0.05 0.00 79 1011.0
20260509122534 11 0 0.0 3.2 0.00 0.05 0.00 78 1011.1
20260509122037 11 329 0.0 3.2 0.00 0.05 0.00 79 1011.2
20260509121550 11 53 0.0 3.2 0.00 0.05 0.00 79 1011.0
20260509121034 11 54 0.0 1.6 0.00 0.05 0.00 79 1010.9
20260509120537 11 61 0.0 3.2 0.00 0.05 0.00 78 1011.0
20260509120049 11 0 0.0 3.2 0.00 0.05 0.00 79 1010.9
20260509115533 11 0 0.0 3.2 0.00 0.05 0.00 79 1011.0
20260509115036 11 5 0.0 3.2 0.00 0.05 0.00 79 1010.9
20260509114556 11 71 0.0 3.2 0.00 0.05 0.00 79 1010.8
20260509114035 11 0 0.0 3.2 0.00 0.05 0.00 79 1010.6
20260509113534 11 90 0.0 3.2 0.00 0.05 0.00 79 1010.7
20260509113057 11 5 0.0 3.2 0.00 0.05 0.00 78 1010.8
20260509112534 11 0 0.0 3.2 0.00 0.05 0.00 78 1010.8
20260509112034 11 0 0.0 3.2 0.00 0.05 0.00 78 1010.7
20260509111544 11 0 0.0 3.2 0.00 0.05 0.00 78 1010.9
20260509111034 11 0 0.0 3.2 0.00 0.05 0.00 78 1010.8
20260509110537 11 0 0.0 3.2 0.00 0.05 0.00 78 1010.7
20260509110050 11 65 0.0 3.2 0.00 0.05 0.00 77 1010.7
20260509105538 11 0 0.0 3.2 0.00 0.05 0.00 77 1010.6
20260509105034 11 71 0.0 3.2 0.00 0.05 0.00 77 1010.6
20260509104547 11 0 1.6 3.2 0.00 0.05 0.00 77 1010.7
20260509104033 11 0 0.0 3.2 0.00 0.05 0.00 77 1010.8
20260509103533 11 68 0.0 3.2 0.00 0.05 0.00 77 1010.5
20260509103057 11 0 0.0 3.2 0.00 0.05 0.00 77 1010.4
20260509102538 11 0 0.0 3.2 0.00 0.05 0.00 77 1010.5
20260509102038 11 65 0.0 3.2 0.00 0.05 0.00 77 1010.5
20260509101600 11 61 0.0 3.2 0.00 0.05 0.00 77 1010.4
20260509101036 11 51 0.0 3.2 0.00 0.05 0.00 77 1010.4
20260509100537 11 59 0.0 3.2 0.00 0.05 0.00 77 1010.4
20260509100045 11 0 0.0 3.2 0.00 0.05 0.00 76 1010.4
20260509095533 10 57 0.0 3.2 0.00 0.05 0.00 76 1010.3
20260509095038 10 0 0.0 3.2 0.00 0.05 0.00 76 1010.3
20260509094556 11 0 1.6 3.2 0.00 0.05 0.00 77 1010.3
20260509094039 10 0 0.0 3.2 0.00 0.05 0.00 77 1010.3
20260509093537 10 74 0.0 0.0 0.00 0.05 0.00 76 1010.3
20260509093050 10 0 0.0 3.2 0.00 0.05 0.00 76 1010.6
20260509092536 10 0 0.0 3.2 0.00 0.05 0.00 76 1010.6
20260509092037 10 0 0.0 3.2 0.00 0.05 0.00 76 1010.5
20260509091548 10 0 0.0 0.0 0.00 0.05 0.00 76 1010.6
20260509091039 10 0 0.0 0.0 0.00 0.05 0.00 75 1010.6
20260509090536 10 0 0.0 3.2 0.00 0.05 0.00 75 1010.5
20260509090058 10 0 0.0 3.2 0.00 0.05 0.00 75 1010.5
20260509085534 10 0 0.0 3.2 0.00 0.05 0.00 75 1010.6
20260509085033 11 0 0.0 3.2 0.00 0.05 0.00 76 1010.6
20260509084548 11 0 0.0 3.2 0.00 0.05 0.00 76 1010.6
20260509084037 11 0 0.0 3.2 0.00 0.05 0.00 76 1010.7
20260509083537 11 63 0.0 3.2 0.00 0.05 0.00 76 1010.7
20260509083057 11 74 0.0 4.8 0.00 0.05 0.00 76 1010.7
20260509082537 11 0 0.0 4.8 0.00 0.05 0.00 76 1010.7
20260509082037 11 85 1.6 3.2 0.00 0.05 0.00 76 1010.7
20260509081552 11 0 0.0 3.2 0.00 0.05 0.00 75 1010.8
20260509081037 11 0 0.0 3.2 0.00 0.05 0.00 75 1010.8
20260509080540 11 0 0.0 3.2 0.00 0.05 0.00 75 1010.9
20260509080052 11 84 0.0 3.2 0.00 0.05 0.00 75 1010.9
20260509075537 11 0 0.0 3.2 0.00 0.05 0.00 75 1011.0
20260509075037 11 67 0.0 3.2 0.00 0.05 0.00 74 1010.9
20260509074552 11 68 0.0 3.2 0.00 0.05 0.00 74 1010.9
20260509074036 11 0 1.6 4.8 0.00 0.05 0.00 74 1010.9
20260509073537 11 69 1.6 4.8 0.00 0.05 0.00 74 1010.9
20260509073053 11 65 0.0 3.2 0.00 0.05 0.00 74 1010.9
20260509072535 11 66 0.0 3.2 0.00 0.05 0.00 74 1011.0
20260509072036 11 83 0.0 3.2 0.00 0.05 0.00 74 1011.1
20260509071546 11 62 0.0 3.2 0.00 0.05 0.00 74 1011.1
20260509071036 11 0 0.0 3.2 0.00 0.05 0.00 73 1011.2
20260509070534 11 92 0.0 3.2 0.00 0.05 0.00 73 1011.1
20260509070044 11 57 0.0 3.2 0.00 0.05 0.00 73 1011.2
20260509065539 11 0 0.0 3.2 0.00 0.05 0.00 72 1011.2
20260509065037 11 63 0.0 3.2 0.00 0.05 0.00 72 1011.3
20260509064547 11 67 0.0 3.2 0.00 0.05 0.00 72 1011.3
20260509064036 11 66 1.6 3.2 0.00 0.05 0.00 72 1011.3
20260509063538 11 66 0.0 3.2 0.00 0.05 0.00 72 1011.3
20260509063046 11 0 0.0 3.2 0.00 0.05 0.00 71 1011.3
20260509062537 11 61 0.0 3.2 0.00 0.05 0.00 71 1011.3
20260509062034 11 71 1.6 4.8 0.00 0.05 0.00 71 1011.4
20260509061549 11 44 0.0 4.8 0.00 0.05 0.00 71 1011.3
20260509061036 11 70 1.6 4.8 0.00 0.05 0.00 71 1011.3
20260509060536 11 74 1.6 4.8 0.00 0.05 0.00 70 1011.4
20260509060104 11 51 1.6 4.8 0.00 0.05 0.00 70 1011.3
20260509055538 11 64 1.6 3.2 0.00 0.05 0.00 70 1011.4
20260509055034 11 70 0.0 3.2 0.00 0.05 0.00 70 1011.3
20260509054551 12 64 0.0 3.2 0.00 0.05 0.00 70 1011.3
20260509054040 12 67 0.0 3.2 0.00 0.05 0.00 70 1011.5
20260509053537 12 67 0.0 3.2 0.00 0.05 0.00 69 1011.4
20260509053106 12 74 0.0 3.2 0.00 0.05 0.00 69 1011.3
20260509052540 12 58 0.0 3.2 0.00 0.05 0.00 69 1011.4
20260509052036 12 0 0.0 3.2 0.00 0.05 0.00 69 1011.6
20260509051552 12 67 0.0 3.2 0.00 0.05 0.00 69 1011.7
20260509051037 12 0 0.0 3.2 0.00 0.05 0.00 69 1011.8
20260509050538 12 66 0.0 3.2 0.00 0.05 0.00 69 1011.8
20260509050049 12 40 0.0 3.2 0.00 0.05 0.00 68 1011.8
20260509045537 12 72 0.0 3.2 0.00 0.05 0.00 67 1011.9
20260509045036 12 0 0.0 3.2 0.00 0.05 0.00 67 1011.8
20260509044609 12 61 0.0 3.2 0.00 0.05 0.00 67 1011.7
20260509044037 12 0 0.0 3.2 0.00 0.05 0.00 66 1011.8
20260509043537 12 0 0.0 3.2 0.00 0.05 0.00 66 1011.8
20260509043122 12 61 0.0 0.0 0.00 0.05 0.00 65 1011.9
20260509042534 12 0 0.0 0.0 0.00 0.05 0.00 65 1011.8
20260509042037 12 0 0.0 0.0 0.03 0.05 0.00 65 1011.7
20260509041549 12 0 0.0 3.2 0.03 0.05 0.00 64 1011.7
20260509041034 12 0 0.0 3.2 0.03 0.05 0.00 64 1011.8
20260509040536 12 0 0.0 3.2 0.03 0.05 0.00 64 1011.7
20260509040048 12 0 0.0 3.2 0.03 0.05 0.00 63 1011.8
20260509035534 12 0 0.0 3.2 0.03 0.05 0.05 63 1011.9
20260509035034 12 73 0.0 3.2 0.03 0.05 0.05 64 1011.8
20260509034549 12 44 0.0 3.2 0.03 0.05 0.05 65 1011.9
20260509034037 12 0 0.0 3.2 0.03 0.05 0.05 64 1012.1